Каньон Кагель

США     34°20′00″N   118°23′06″W
темп.,
°C
ветер,
м/с
пор.,
м/с
влажн.,
%
обл.,
%
осадки,
мм/ч
давл.,
гПа
погр.,
м
19 апреля, пн
пн1923:00+21с33220 0.0 101678
02:00+19с33230 0.0 101650
05:00+18с32230 0.0 101637
08:00+20с22180 0.0 101795
11:00+27ююз12120 0.0 1016683
14:00+30ю55100 0.0 10142508
17:00+29юз44110 0.0 10121645
20:00+24юз11190 0.0 1013210
20 апреля, вт
вт2023:00+21юв23330 0.0 1013227
02:00+18юв22430 0.0 1012130
05:00+17ююв11500 0.0 101259
08:00+18ююв22480 0.0 1013261
11:00+22ююв33330 0.0 1012788
14:00+24ююв54270 0.0 10101205
17:00+23ююв542883 0.0 10091133
20:00+18ююв44521 0.0 1010700
21 апреля, ср
ср2123:00+15юв447258 0.0 1011711
02:00+13юв4570100 0.0 1010913
05:00+13юв4574100 0.1 10101029
08:00+13юв336789 0.1 1012904
11:00+16ююв325132 0.1 10121188
14:00+19ююв644164 0.0 10111659
17:00+16ююв435896 0.0 10101223
20:00+14ю326766 0.0 1011781
22 апреля, чт
чт2223:00+13ю3371100 0.0 1012834
02:00+13ююв227393 0.0 1012738
05:00+12ю2175100 0.1 1012597
08:00+13ю217063 0.0 1013702
11:00+16ююв325539 0.0 10131088
14:00+20ю43421 0.0 10121310
17:00+20ююз43460 0.0 10111063
20:00+16зюз22600 0.0 1012512
23 апреля, пт
пт2323:00+14ююз11680 0.0 1014456
02:00+13юв23743 0.0 1014441
05:00+12юв238137 0.0 1014406
08:00+12ююв237790 0.0 1016584
11:00+15ююв326229 0.0 1016792
14:00+20ююв42446 0.0 10141073
17:00+20ю42460 0.0 10131016
20:00+15ююв32654 0.0 1015578